Find Starlink 35910

NORAD ID: 67184 Int'l Des: 2025-303 Owner: SPXS Country: US Constellation: starlink operational
LEOCIRCULAR

Current View

Loading 3D Globe...

About Starlink 35910

Description loading...

Upcoming Passes

Passes for default location (London). Set your location on the main map for personalized predictions.

Altitude History

Loading altitude history...

Two-Line Element Set

1 67184U 25303X 26149.53202178 .00031809 00000-0 11593-2 0 9991
2 67184 42.9949 213.7454 0001494 287.0671 73.0017 15.27611245 25100
Epoch: May 29, 2026 • Age: 14 hours

Current Status

Altitude 484.0 km
Velocity 7.63 km/s
Sub-Earth Point 30.88°N, 44.2°W
Launch Date Dec 17, 2025
Age 0.4 years
Type internet

Technical Details

Classification Payload
Mass 575.00 kg
Dry Mass 530.00 kg
Total Mass 575.00 kg
Length 0.30 m
Diameter 4.10 m
Span 29.00 m
Shape Box + pan
Manufacturer SPXS
Bus Type Starlink V2MO
Phase Status In Orbit
Owner/State SPXS/US

Most Searched